Sedona, AZ

2:03 PM MST on September 20, 2017 (GMT -0700)
Sedona

Weather History for KSEZ - April, 2013

Change the Weather History Date:

Wednesday, April 10, 2013

  Actual Average Record
Temperature  
Mean Temperature 52 °F -  
Max Temperature 62 °F 73 °F 82 °F (2014)
Min Temperature 41 °F 39 °F 28 °F (2011)
Degree Days  
Heating Degree Days 14    
Growing Degree Days 2 (Base 50)    
Moisture  
Dew Point 23 °F    
Average Humidity 36    
Maximum Humidity 66    
Minimum Humidity 14    
Precipitation  
Precipitation 0.00 in - - ()
Sea Level Pressure  
Sea Level Pressure 30.00 in    
Wind  
Wind Speed 9 mph (NNE)    
Max Wind Speed 16 mph    
Max Gust Speed 26 mph    
Visibility 10 miles    
Events      
Averages and records for this station are not official NWS values.
T = Trace of Precipitation, MM = Missing Value Source: NWS Daily Summary

Daily Weather History Graph

Daily Weather History Graph

Search for Another Location

Airport or City:

Trip Planner

Search our weather history database for the weather conditions in past years. The results will help you decide how hot, cold, wet, or windy it might be!

Date:

Astronomy

Apr. 10, 2013 Rise Set
Actual Time 6:01 AM MST 6:55 PM MST
Civil Twilight 5:35 AM MST 7:21 PM MST
Nautical Twilight 5:05 AM MST 7:52 PM MST
Astronomical Twilight 4:33 AM MST 8:23 PM MST
Moon 6:01 AM MST (4/10) 7:32 PM MST (4/10)
Length of Visible Light 13h 45m
Length of Day
12h 54m
New Moon, 0% of the Moon is Illuminated
Apr 10
New Moon
Apr 18
First Quarter
Apr 25
Full
May 2
Last Quarter
May 9
New

Hourly Weather History & Observations

Time (MST) Temp. Windchill Dew Point Humidity Pressure Visibility Wind Dir Wind Speed Gust Speed Precip Events Conditions
12:15 AM 41.0 °F 36.4 °F 24.8 °F 53% 29.93 in 10.0 mi NE 6.9 mph - N/A   Scattered Clouds
12:35 AM 41.0 °F 36.4 °F 24.8 °F 53% 29.93 in 10.0 mi NE 6.9 mph - N/A   Clear
12:55 AM 41.0 °F 35.8 °F 26.6 °F 57% 29.93 in 10.0 mi NE 8.1 mph - N/A   Clear
1:15 AM 41.0 °F 36.4 °F 26.6 °F 57% 29.92 in 10.0 mi NNE 6.9 mph - N/A   Clear
1:35 AM 41.0 °F 38.0 °F 26.6 °F 57% 29.93 in 10.0 mi NNE 4.6 mph - N/A   Clear
1:55 AM 41.0 °F 36.4 °F 26.6 °F 57% 29.93 in 10.0 mi NE 6.9 mph - N/A   Clear
2:15 AM 41.0 °F 36.4 °F 28.4 °F 61% 29.93 in 10.0 mi NE 6.9 mph - N/A   Clear
2:35 AM 41.0 °F 34.3 °F 28.4 °F 61% 29.93 in 10.0 mi NE 11.5 mph 17.3 mph N/A   Clear
2:55 AM 42.8 °F 36.2 °F 30.2 °F 61% 29.93 in 10.0 mi NE 12.7 mph 19.6 mph N/A   Clear
3:15 AM 42.8 °F 35.1 °F 30.2 °F 61% 29.93 in 10.0 mi NE 16.1 mph 23.0 mph N/A   Clear
3:35 AM 42.8 °F 37.0 °F 30.2 °F 61% 29.94 in 10.0 mi NE 10.4 mph 23.0 mph N/A   Clear
3:55 AM 42.8 °F 37.0 °F 32.0 °F 66% 29.94 in 10.0 mi ENE 10.4 mph 16.1 mph N/A   Clear
4:15 AM 42.8 °F 35.4 °F 30.2 °F 61% 29.94 in 10.0 mi NE 15.0 mph 25.3 mph N/A   Clear
4:35 AM 42.8 °F 36.2 °F 30.2 °F 61% 29.95 in 10.0 mi NE 12.7 mph 20.7 mph N/A   Clear
4:55 AM 41.0 °F 33.5 °F 30.2 °F 65% 29.95 in 10.0 mi NE 13.8 mph 18.4 mph N/A   Clear
5:15 AM 41.0 °F 33.9 °F 30.2 °F 65% 29.96 in 10.0 mi NE 12.7 mph 17.3 mph N/A   Clear
5:35 AM 41.0 °F 33.1 °F 28.4 °F 61% 29.98 in 10.0 mi NNE 15.0 mph 20.7 mph N/A   Clear
5:55 AM 41.0 °F 33.5 °F 28.4 °F 61% 29.98 in 10.0 mi NE 13.8 mph 26.5 mph N/A   Clear
6:15 AM 41.0 °F 34.3 °F 26.6 °F 57% 29.99 in 10.0 mi NE 11.5 mph 21.9 mph N/A   Clear
6:35 AM 41.0 °F 35.8 °F 28.4 °F 61% 30.01 in 10.0 mi NNE 8.1 mph 17.3 mph N/A   Clear
6:55 AM 42.8 °F 37.0 °F 26.6 °F 53% 30.03 in 10.0 mi NE 10.4 mph - N/A   Clear
7:15 AM 42.8 °F 38.6 °F 28.4 °F 57% 30.02 in 10.0 mi East 6.9 mph - N/A   Clear
7:35 AM 44.6 °F 40.2 °F 28.4 °F 53% 30.02 in 10.0 mi ENE 8.1 mph - N/A   Clear
7:55 AM 44.6 °F 39.2 °F 26.6 °F 49% 30.03 in 10.0 mi ENE 10.4 mph 17.3 mph N/A   Clear
8:15 AM 46.4 °F 41.5 °F 26.6 °F 46% 30.04 in 10.0 mi NE 10.4 mph 18.4 mph N/A   Clear
8:35 AM 48.2 °F - 24.8 °F 40% 30.04 in 10.0 mi NE 8.1 mph 19.6 mph N/A   Clear
8:55 AM 50.0 °F - 26.6 °F 40% 30.06 in 10.0 mi East 9.2 mph - N/A   Clear
9:15 AM 50.0 °F - 26.6 °F 40% 30.06 in 10.0 mi ESE 9.2 mph - N/A   Clear
9:35 AM 50.0 °F - 24.8 °F 37% 30.06 in 10.0 mi East 9.2 mph 17.3 mph N/A   Clear
9:55 AM 53.6 °F - 26.6 °F 35% 30.07 in 10.0 mi East 8.1 mph 17.3 mph N/A   Mostly Cloudy
10:15 AM 53.6 °F - 24.8 °F 33% 30.07 in 10.0 mi East 8.1 mph 17.3 mph N/A   Scattered Clouds
10:35 AM 53.6 °F - 23.0 °F 30% 30.07 in 10.0 mi ENE 4.6 mph 9.2 mph N/A   Scattered Clouds
10:55 AM 53.6 °F - 21.2 °F 28% 30.07 in 10.0 mi ENE 8.1 mph 17.3 mph N/A   Scattered Clouds
11:15 AM 55.4 °F - 21.2 °F 26% 30.06 in 10.0 mi ESE 10.4 mph 16.1 mph N/A   Clear
11:35 AM 53.6 °F - 21.2 °F 28% 30.06 in 10.0 mi NNE 5.8 mph 11.5 mph N/A   Clear
11:55 AM 53.6 °F - 21.2 °F 28% 30.05 in 10.0 mi NW 6.9 mph - N/A   Clear
12:15 PM 53.6 °F - 21.2 °F 28% 30.04 in 10.0 mi NW 3.5 mph 18.4 mph N/A   Clear
12:55 PM 57.2 °F - 23.0 °F 27% 30.03 in 10.0 mi West 6.9 mph - N/A   Clear
1:15 PM 57.2 °F - 23.0 °F 27% 30.02 in 10.0 mi NNW 5.8 mph - N/A   Clear
1:35 PM 59.0 °F - 23.0 °F 25% 30.01 in 10.0 mi WSW 8.1 mph 17.3 mph N/A   Clear
1:55 PM 59.0 °F - 23.0 °F 25% 30.01 in 10.0 mi NW 8.1 mph - N/A   Clear
2:15 PM 59.0 °F - 21.2 °F 23% 30.00 in 10.0 mi West 9.2 mph - N/A   Clear
2:35 PM 59.0 °F - 21.2 °F 23% 30.00 in 10.0 mi West 5.8 mph - N/A   Clear
2:55 PM 60.8 °F - 23.0 °F 23% 30.00 in 10.0 mi NNW 8.1 mph - N/A   Clear
3:15 PM 60.8 °F - 23.0 °F 23% 29.99 in 10.0 mi NW 11.5 mph 17.3 mph N/A   Clear
3:35 PM 60.8 °F - 19.4 °F 20% 29.98 in 10.0 mi West 4.6 mph - N/A   Clear
3:55 PM 62.6 °F - 21.2 °F 20% 29.98 in 10.0 mi West 3.5 mph - N/A   Clear
4:15 PM 62.6 °F - 14.0 °F 15% 29.98 in 10.0 mi NNW 13.8 mph 20.7 mph N/A   Clear
4:35 PM 62.6 °F - 14.0 °F 15% 29.98 in 10.0 mi NE 8.1 mph - N/A   Clear
4:55 PM 62.6 °F - 14.0 °F 15% 29.98 in 10.0 mi North 9.2 mph - N/A   Clear
5:15 PM 62.6 °F - 14.0 °F 15% 29.98 in 10.0 mi NW 12.7 mph - N/A   Clear
5:35 PM 60.8 °F - 10.4 °F 14% 29.98 in 10.0 mi NNW 10.4 mph - N/A   Clear
5:55 PM 62.6 °F - 12.2 °F 14% 29.98 in 10.0 mi North 4.6 mph - N/A   Clear
6:15 PM 60.8 °F - 17.6 °F 19% 29.98 in 10.0 mi NNW 13.8 mph - N/A   Clear
6:35 PM 59.0 °F - 17.6 °F 20% 29.99 in 10.0 mi NNW 16.1 mph 20.7 mph N/A   Clear
6:55 PM 59.0 °F - 17.6 °F 20% 30.00 in 10.0 mi North 11.5 mph 21.9 mph N/A   Clear
7:15 PM 57.2 °F - 17.6 °F 21% 30.00 in 10.0 mi NNW 8.1 mph - N/A   Clear
7:35 PM 57.2 °F - 15.8 °F 20% 30.01 in 10.0 mi NNW 8.1 mph 16.1 mph N/A   Clear
7:55 PM 57.2 °F - 15.8 °F 20% 30.02 in 10.0 mi North 6.9 mph - N/A   Clear
8:15 PM 55.4 °F - 15.8 °F 21% 30.03 in 10.0 mi North 10.4 mph - N/A   Clear
8:35 PM 55.4 °F - 17.6 °F 23% 30.03 in 10.0 mi North 8.1 mph 16.1 mph N/A   Clear
8:55 PM 55.4 °F - 17.6 °F 23% 30.04 in 10.0 mi North 5.8 mph - N/A   Clear
9:15 PM 53.6 °F - 17.6 °F 24% 30.04 in 10.0 mi NNE 6.9 mph - N/A   Clear
9:35 PM 53.6 °F - 17.6 °F 24% 30.04 in 10.0 mi East 4.6 mph - N/A   Clear
9:55 PM 51.8 °F - 17.6 °F 26% 30.04 in 10.0 mi NE 5.8 mph - N/A   Clear
10:15 PM 51.8 °F - 17.6 °F 26% 30.04 in 10.0 mi ENE 9.2 mph - N/A   Clear
10:35 PM 53.6 °F - 17.6 °F 24% 30.04 in 10.0 mi ENE 10.4 mph - N/A   Clear
10:55 PM 53.6 °F - 17.6 °F 24% 30.04 in 10.0 mi ENE 9.2 mph - N/A   Clear
11:15 PM 51.8 °F - 19.4 °F 28% 30.04 in 10.0 mi ENE 6.9 mph - N/A   Clear
11:35 PM 51.8 °F - 19.4 °F 28% 30.04 in 10.0 mi ENE 5.8 mph - N/A   Clear
11:55 PM 51.8 °F - 19.4 °F 28% 30.04 in 10.0 mi ENE 5.8 mph - N/A   Clear